Find Starlink 31014

NORAD ID: 58538 Int'l Des: 2023-192 Owner: SPXS Country: US Constellation: starlink operational
LEOCIRCULAR

リアルタイム位置

3D地球を読み込み中...

Starlink 31014について

説明を読み込み中...

次回通過

Passes for default location (London). Set your location on the main map for personalized predictions.

高度履歴

Loading altitude history...

軌道要素

1 58538U 23192H 26126.34556270 .00000402 00000-0 23066-4 0 9992
2 58538 53.1629 154.8691 0001799 78.6331 281.4874 15.34381264134813
Epoch: May 6, 2026 • Age: 22 hours

現在のステータス

高度 467.9 km
速度 7.64 km/s
衛星直下点 52.64°N, 95.23°W
打ち上げ日 Dec 8, 2023
運用期間 2.4 years
タイプ internet

技術仕様

分類 Payload
質量 730.00 kg
乾燥質量 700.00 kg
総質量 730.00 kg
長さ 0.30 m
直径 4.10 m
スパン 29.00 m
形状 Box + pan
製造者 SPXS
バスタイプ Starlink V2M
フェーズステータス In Orbit
所有者/国 SPXS/US

Most Searched